Theta_e
320 320 320 320 320 319 320 321 321 323 324 325 325 324 322 321 321 321 320 320 319 322
320 319 318 318 320 319 321 325 322 323 324 325 325 324 322 321 320 320 319 318 318 320
322 323 320 321 319 321 321 323 322 322 323 324 324 323 322 322 323 324 323 320 319 318
322 323 322 323 324 321 321 323 323 323 324 323 323 324 324 323 323 322 321 320 322 320
322 322 322 323 321 322 321 323 323 324 324 323 323 324 324 323 323 321 320 320 321 320
320 322 321 321 322 324 325 322 324 324 324 325 324 325 324 323 321 321 320 321 320 320
319 321 321 323 321 322 323 323 324 326 327 327 326 327 326 325 323 321 320 321 322 322
320 321 321 324 323 323 323 324 327 327 328 328 327 327 325 324 323 322 322 322 324 324
319 320 321 322 323 322 318 321 324 326 327 326 326 309 313 321 324 323 323 322 323 323
319 320 322 320 322 317 315 315 315 316 318 321 320 305 308 312 325 323 323 323 323 324
317 319 320 319 318 317 314 314 313 312 312 314 317 303 305 311 325 323 323 324 324 324
316 318 319 319 317 316 314 313 312 311 311 308 306 302 302 315 322 321 321 323 324 323
316 317 317 318 317 317 315 314 314 312 311 307 304 299 303 314 321 316 316 316 318 309
314 315 315 318 317 318 316 316 313 311 309 310 306 300 300 307 316 316 312 312 313 311
Wind_Speed
4 3 1 2 2 2 1 1 0 3 4 5 5 6 6 4 4 5 5 7 4 5
3 4 2 3 2 1 1 1 3 4 5 5 6 7 7 4 5 6 4 5 5 5
3 3 2 3 4 4 3 3 3 4 5 6 6 7 7 6 7 10 5 4 7 6
2 2 3 3 4 3 2 3 3 4 6 5 8 7 8 8 9 10 9 6 8 7
4 4 4 4 5 2 3 4 4 5 6 6 6 6 11 10 8 10 9 8 9 7
5 5 4 4 5 3 3 3 5 5 5 7 7 7 8 10 9 10 10 8 9 9
5 6 4 4 5 4 3 4 4 4 4 5 8 8 10 9 9 9 9 9 8 8
5 5 5 5 5 5 3 3 5 5 5 6 7 7 10 8 8 8 9 7 8 7
6 5 5 4 5 5 6 6 5 5 5 5 4 12 13 9 9 7 8 9 8 9
6 5 4 5 6 6 6 6 6 5 6 6 5 10 12 11 8 8 8 8 10 9
7 6 6 6 7 6 5 6 6 6 5 5 4 7 9 9 6 8 8 9 10 9
7 7 6 7 7 6 6 5 4 5 6 6 3 7 8 7 6 6 8 8 7 6
9 9 7 7 6 4 5 6 5 5 5 7 6 7 9 8 6 5 4 4 5 8
9 10 9 8 5 6 5 6 5 6 4 6 6 5 8 10 5 6 5 5 4 3
Wind_Direction
120 113 75 40 317 6 91 47 117 166 162 155 143 134 130 132 133 129 128 134 124 121
127 104 94 56 72 63 16 20 87 113 148 144 143 136 130 115 114 108 111 110 107 115
174 131 117 83 77 59 42 35 82 101 113 123 124 118 113 109 114 117 100 101 110 103
167 89 127 110 100 85 61 68 88 79 97 107 121 114 105 109 118 125 119 105 121 108
130 116 114 117 111 93 64 50 72 82 88 87 92 115 123 119 110 117 122 116 122 116
133 126 112 137 115 116 110 82 64 86 95 102 105 104 104 112 115 118 130 126 130 125
158 135 156 143 133 129 110 101 74 72 77 111 105 113 121 115 112 110 128 131 132 127
172 139 140 155 156 130 141 132 133 95 63 54 93 110 118 120 113 114 107 104 111 101
161 151 150 173 138 109 95 112 105 98 113 88 96 125 120 121 129 126 115 119 107 120
158 157 149 150 129 119 112 108 101 108 119 105 113 128 128 130 138 137 135 134 137 142
154 156 145 128 121 121 122 123 117 110 114 118 126 135 135 125 111 132 132 144 163 163
160 158 151 135 139 137 124 122 132 133 128 124 124 190 155 127 116 125 134 145 159 145
163 159 157 150 147 139 139 139 137 136 145 129 107 125 162 145 135 124 112 109 166 179
164 165 161 154 149 139 140 131 139 144 158 137 138 118 116 134 130 142 142 151 170 178